Location: The Stocker AstroScience Center
(25.7579°N, 80.3725°W)
Time: 17:47:36
(UTC-04:00)

ISS - All Passes

Search period start: 25 April 2015 00:00
Search period end: 05 May 2015 00:00
Orbit: 395 x 402 km, 51.6° (Epoch: 25 April)

Date Brightness Start Highest point End Pass type
(mag) Time Alt. Az. Time Alt. Az. Time Alt. Az.
25 Apr - 11:44:55 10° SW 11:48:08 76° NW 11:51:23 10° NE daylight
25 Apr - 19:55:00 10° NNW 19:57:48 27° NE 20:00:38 10° ESE daylight
25 Apr - 21:32:10 10° W 21:33:59 14° SW 21:35:42 10° SSW visible
26 Apr - 10:51:07 10° SSW 10:54:07 37° SE 10:57:09 10° ENE daylight
26 Apr - 12:29:07 10° WNW 12:30:37 12° NW 12:32:01 10° NNW daylight
26 Apr - 19:01:57 10° N 19:03:31 13° NE 19:05:10 10° ENE daylight
26 Apr - 20:37:00 10° WNW 20:40:00 34° SW 20:42:57 10° SSE visible
27 Apr - 09:58:14 10° SSE 10:00:05 15° SE 10:02:04 10° E daylight
27 Apr - 11:33:31 10° WSW 11:36:17 25° NW 11:39:03 10° NNE daylight
27 Apr - 19:42:40 10° NW 19:45:54 82° NE 19:49:08 10° SE daylight
28 Apr - 10:38:51 10° SW 10:42:03 65° NW 10:45:17 10° NE daylight
28 Apr - 18:48:46 10° NNW 18:51:41 30° NE 18:54:36 10° ESE daylight
28 Apr - 20:26:24 10° W 20:27:50 12° SW 20:29:08 10° SSW visible
29 Apr - 09:44:49 10° SSW 09:47:53 43° SE 09:50:59 10° NE daylight
29 Apr - 11:23:22 10° WNW 11:24:27 11° NW 11:25:23 10° NNW daylight
29 Apr - 17:55:28 10° N 17:57:17 14° NE 17:59:12 10° ENE daylight
29 Apr - 19:30:48 10° WNW 19:33:42 30° SW 19:36:34 10° S daylight
30 Apr - 08:51:37 10° SSE 08:53:44 17° SE 08:55:56 10° E daylight
30 Apr - 10:27:18 10° W 10:29:57 23° NW 10:32:35 10° NNE daylight
30 Apr - 18:36:16 10° NW 18:39:29 86° SW 18:42:43 10° SE daylight
01 May - 09:32:24 10° SW 09:35:35 56° NW 09:38:46 10° NNE daylight
01 May - 17:42:10 10° NNW 17:45:10 34° NE 17:48:10 10° ESE daylight
01 May - 19:20:23 10° WSW 19:21:16 11° SW 19:22:00 10° SW daylight
02 May - 08:38:08 10° SSW 08:41:16 49° SE 08:44:24 10° NE daylight
02 May - 10:17:37 10° NW 10:17:51 10° NW 10:17:57 10° NW daylight
02 May - 16:48:37 10° N 16:50:39 16° NE 16:52:45 10° E daylight
02 May - 18:24:13 10° WNW 18:27:01 26° SW 18:29:46 10° S daylight
03 May - 07:44:40 10° S 07:46:58 19° SE 07:49:21 10° E daylight
03 May - 09:20:41 10° W 09:23:13 21° NW 09:25:43 10° N daylight
03 May - 17:29:27 10° NW 17:32:41 75° SW 17:35:54 10° SE daylight
04 May - 08:25:33 10° WSW 08:28:41 49° NW 08:31:50 10° NNE daylight
04 May - 16:35:11 10° NNW 16:38:14 38° NE 16:41:16 10° ESE daylight
